This is the latest recevied weather packets stored in our database for station/object K7VLL. If no packets are shown the sender has not sent any weather packets the latest 10 day(s).
| Time | Temp. | Humidity | Pressure | Rain* | Wind** | Luminosity | Snow |
|---|---|---|---|---|---|---|---|
| 1777742123 | 28.89° C | 22% | 1091.7 hPa | 0 mm | - | 598 W/m² | - |
| 1777740321 | 27.22° C | 24% | 1091.7 hPa | 0 mm | - | 529 W/m² | - |
| 1777738517 | 26.11° C | 26% | 1091.8 hPa | 0 mm | - | 100 W/m² | - |
| 1777736716 | 24.44° C | 27% | 1091.5 hPa | 0 mm | - | 41 W/m² | - |
| 1777734628 | 23.33° C | 30% | 1091.3 hPa | 0 mm | - | 59 W/m² | - |
| 1777732825 | 21.11° C | 33% | 1091.2 hPa | 0 mm | - | 159 W/m² | - |
| 1777731020 | 20° C | 33% | 1090.8 hPa | 0 mm | - | 41 W/m² | - |
| 1777729218 | 18.33° C | 33% | 1090.4 hPa | 0 mm | - | 28 W/m² | - |
| 1777727417 | 16.67° C | 33% | 1089.8 hPa | 0 mm | - | 23 W/m² | - |
| 1777725616 | 15° C | 35% | 1089.8 hPa | 0 mm | - | 3 W/m² | - |
| 1777723817 | 15° C | 32% | 1089.6 hPa | 0 mm | - | 0 W/m² | - |
| 1777722015 | 15.56° C | 30% | 1089.4 hPa | 0 mm | - | 0 W/m² | - |
| 1777720212 | 15° C | 32% | 1089.2 hPa | 0 mm | - | 0 W/m² | - |
| 1777718408 | 15.56° C | 31% | 1089.5 hPa | 0 mm | - | 0 W/m² | - |
| 1777716605 | 15.56° C | 32% | 1089.4 hPa | 0 mm | - | 0 W/m² | - |
| 1777714801 | 15° C | 30% | 1089.2 hPa | 0 mm | - | 0 W/m² | - |
| 1777712998 | 16.11° C | 29% | 1089.1 hPa | 0 mm | - | 0 W/m² | - |
| 1777711194 | 15.56° C | 29% | 1089 hPa | 0 mm | - | 0 W/m² | - |
| 1777709388 | 17.22° C | 28% | 1089.4 hPa | 0 mm | - | 0 W/m² | - |
| 1777707583 | 15.56° C | 26% | 1089.1 hPa | 0 mm | - | 0 W/m² | - |
| 1777705779 | 16.67° C | 28% | 1089.3 hPa | 0 mm | - | 0 W/m² | - |
| 1777703977 | 17.78° C | 28% | 1089.4 hPa | 0 mm | - | 0 W/m² | - |
| 1777702172 | 18.89° C | 26% | 1089 hPa | 0 mm | - | 0 W/m² | - |
| 1777700369 | 18.89° C | 24% | 1088.7 hPa | 0 mm | - | 0 W/m² | - |
| 1777698566 | 20.56° C | 28% | 1088.6 hPa | 0 mm | - | 0 W/m² | - |
* Rain latest hour (hover to see other rain measurements)
** Current wind speed in m/s (hover to see current wind gust speed)